Change the Weather History Date:

Saturday, October 6, 2012

  Actual Average Record
Temperature  
Mean Temperature 63 °F -  
Max Temperature 71 °F 61 °F 77 °F (1997)
Min Temperature 55 °F 46 °F 44 °F (1999)
Degree Days  
Heating Degree Days 2    
Growing Degree Days 13 (Base 50)    
Moisture  
Dew Point 57 °F    
Average Humidity 78    
Maximum Humidity 94    
Minimum Humidity 60    
Precipitation  
Precipitation 0.00 in 0.14 in - ()
Sea Level Pressure  
Sea Level Pressure 30.11 in    
Wind  
Wind Speed 5 mph ()    
Max Wind Speed 12 mph    
Max Gust Speed -    
Visibility 5.7 miles    
Events      
Averages and records for this station are not official NWS values.
T = Trace of Precipitation, MM = Missing Value Source: Averaged Metar Reports

Daily Weather History Graph

Daily Weather History Graph

Search for Another Location

Airport or City:

Trip Planner

Search our weather history database for the weather conditions in past years. The results will help you decide how hot, cold, wet, or windy it might be!

Date:

Astronomy

Oct. 06, 2012 Rise Set
Actual Time 7:26 AM CEST 6:51 PM CEST
Civil Twilight 6:56 AM CEST 7:21 PM CEST
Nautical Twilight 6:22 AM CEST 7:55 PM CEST
Astronomical Twilight 5:47 AM CEST 8:30 PM CEST
Moon 10:38 PM CEST (10/6) 1:22 PM CEST (10/6)
Length of Visible Light 12h 24m
Length of Day
11h 25m
Waning Gibbous, 68% of the Moon is Illuminated
Oct 6
Waning Gibbous
Oct 8
Last Quarter
Oct 15
New
Oct 22
First Quarter
Oct 29
Full

Hourly Weather History & Observations

Time (CEST) Temp. Dew Point Humidity Pressure Visibility Wind Dir Wind Speed Gust Speed Precip Events Conditions
12:20 AM 57.2 °F 55.4 °F 94% 30.15 in - North 6.9 mph - N/A   Clear
12:50 AM 59.0 °F 55.4 °F 88% 30.15 in - North 4.6 mph - N/A   Clear
5:50 AM 55.4 °F 53.6 °F 94% 30.12 in - North 5.8 mph - N/A   Clear
6:20 AM 55.4 °F 53.6 °F 94% 30.12 in - North 5.8 mph - N/A   Clear
6:50 AM 55.4 °F 53.6 °F 94% 30.12 in - North 5.8 mph - N/A   Clear
7:20 AM 55.4 °F 53.6 °F 94% 30.12 in 6.2 mi North 6.9 mph - N/A   Partly Cloudy
7:50 AM 57.2 °F 53.6 °F 88% 30.12 in 6.2 mi North 5.8 mph - N/A   Scattered Clouds
8:20 AM 57.2 °F 55.4 °F 94% 30.15 in 6.2 mi NNE 5.8 mph - N/A   Scattered Clouds
8:50 AM 59.0 °F 55.4 °F 88% 30.15 in 6.2 mi North 5.8 mph - N/A   Mostly Cloudy
9:20 AM 59.0 °F 55.4 °F 88% 30.15 in 6.2 mi Variable 2.3 mph - N/A   Mostly Cloudy
9:50 AM 60.8 °F 55.4 °F 82% 30.15 in 6.2 mi North 5.8 mph - N/A   Mostly Cloudy
10:20 AM 62.6 °F 57.2 °F 82% 30.15 in 6.2 mi North 4.6 mph - N/A   Mostly Cloudy
10:50 AM 64.4 °F 57.2 °F 77% 30.15 in 6.2 mi Calm Calm - N/A   Mostly Cloudy
11:20 AM 66.2 °F 59.0 °F 78% 30.15 in 6.2 mi Variable 1.2 mph - N/A   Mostly Cloudy
11:50 AM 69.8 °F 57.2 °F 64% 30.15 in 6.2 mi Calm Calm - N/A   Scattered Clouds
12:20 PM 68.0 °F 57.2 °F 68% 30.15 in - West 6.9 mph - N/A   Clear
12:50 PM 69.8 °F 59.0 °F 68% 30.12 in - WSW 5.8 mph - N/A   Clear
1:20 PM 69.8 °F 59.0 °F 68% 30.12 in 6.2 mi WSW 5.8 mph - N/A   Partly Cloudy
1:50 PM 71.6 °F 60.8 °F 69% 30.12 in 6.2 mi West 5.8 mph - N/A   Partly Cloudy
2:20 PM 71.6 °F 59.0 °F 64% 30.09 in 6.2 mi WSW 8.1 mph - N/A   Scattered Clouds
2:50 PM 71.6 °F 59.0 °F 64% 30.09 in 6.2 mi SW 8.1 mph - N/A   Scattered Clouds
3:20 PM 71.6 °F 59.0 °F 64% 30.09 in 6.2 mi SW 11.5 mph - N/A   Scattered Clouds
3:50 PM 71.6 °F 59.0 °F 64% 30.06 in 6.2 mi SW 10.4 mph - N/A   Scattered Clouds
4:20 PM 71.6 °F 59.0 °F 64% 30.06 in 6.2 mi WSW 6.9 mph - N/A   Scattered Clouds
4:50 PM 71.6 °F 59.0 °F 64% 30.06 in 6.2 mi WSW 9.2 mph - N/A   Scattered Clouds
5:20 PM 71.6 °F 57.2 °F 60% 30.06 in 6.2 mi WSW 9.2 mph - N/A   Scattered Clouds
5:50 PM 69.8 °F 57.2 °F 64% 30.06 in 6.2 mi West 9.2 mph - N/A   Scattered Clouds
6:20 PM 69.8 °F 57.2 °F 64% 30.06 in 6.2 mi SW 6.9 mph - N/A   Scattered Clouds
6:50 PM 68.0 °F 57.2 °F 68% 30.06 in 6.2 mi SW 5.8 mph - N/A   Scattered Clouds
7:20 PM 68.0 °F 57.2 °F 68% 30.06 in 4.3 mi WSW 5.8 mph - N/A   Scattered Clouds
7:50 PM 64.4 °F 57.2 °F 77% 30.09 in 4.3 mi NW 3.5 mph - N/A   Scattered Clouds
8:20 PM 64.4 °F 57.2 °F 77% 30.09 in 4.3 mi WNW 3.5 mph - N/A   Scattered Clouds
8:50 PM 64.4 °F 59.0 °F 83% 30.06 in 4.3 mi Variable 2.3 mph - N/A   Scattered Clouds
9:20 PM 62.6 °F 59.0 °F 88% 30.09 in 4.3 mi North 2.3 mph - N/A   Scattered Clouds
9:50 PM 62.6 °F 59.0 °F 88% 30.09 in 4.3 mi Calm Calm - N/A   Scattered Clouds
10:20 PM 60.8 °F 57.2 °F 88% 30.09 in 5.0 mi North 3.5 mph - N/A   Partly Cloudy
10:50 PM 60.8 °F 59.0 °F 94% 30.09 in 5.0 mi North 3.5 mph - N/A   Scattered Clouds
11:20 PM 60.8 °F 59.0 °F 94% 30.09 in 5.0 mi Calm Calm - N/A   Scattered Clouds
11:50 PM 62.6 °F 59.0 °F 88% 30.06 in 5.6 mi Variable 2.3 mph - N/A   Scattered Clouds